星链-30264 (STARLINK-30264 )

导读

STARLINK-30264是美国SpaceX公司星链星座的成员卫星,于2023年8月8日发射入轨。星链项目计划构建近万颗低轨卫星组成的全球卫星互联网系统,这颗卫星运行在近550公里左右的近地轨道,作为星链组网的一部分,为全球偏远地区提供高速低延迟的宽带互联网接入服务,助力填补数字鸿沟,同时也可支持应急通信、特殊场景网络需求,该卫星已在轨稳定运行约2年7个月,持续参与星链星座服务。

基本信息
目录编号:
57534
目录名称:
STARLINK-30264
国际标识:
2023-115P
轨道中心:
EARTH
卫星名称:
星链-30264
卫星全名:
星链-30264 (STARLINK-30264 )
卫星状态:
在轨 (已飞行1124 天)
发射日期:
2023-08-08 UTC
国别 :
美国 (US)
星等 :
--
轨道信息
数据来源 国际轨道数据
星历时间: 2026-09-05T11:43:32+0800
10小时前
查看轨道信息
半长轴: 6861.201km
偏心率: 0.0001264
轨道倾角: 43.002°
近地点辐角 271.432°
升交点赤经 275.372°
平近点角 88.639°
近地点: 482.196km
远地点: 483.932km
周期: 94.267分钟
每日圈数: 15.275751
详细信息
固有亮度:
5
最大亮度:
0.3
卫星平台:
Starlink v2.0 mini
覆盖范围:
全球
运营商:
太空探索技术公司
运营商所在国:
美国
制造商(研发单位):
太空探索技术公司
制造商所在国:
美国
使用方式:
暂无
卫星简介
星链(Starlink)计划是由太空探索技术公司(SpaceX)提出的一个巨型低轨卫星互联网星座项目,计划在2019年至2024年间在太空搭建由约1.2万颗卫星组成的“星链”网络,其中1584颗将部署在地球上空550千米处的近地轨道,并从2020年开始工作。该卫星仍在工作。
2D轨道图
3D轨道图
轨道高度分析图
轨道倾角分析图
轨道综合分析图
查看轨道综合分析图
交会数据列表
事件ID 空间交会对象 最接近时刻(TCA) 交会距离 交会风险概率(CRP) 交会风险指数(CRI) 操作
CDM_260907-043505-753406-681221
2026-09-07T
04:35:53+0000
0.296 km
中距离
3.883002E-4 高风险 0.87
CDM_260908-011505-753406-782421
2026-09-08T
01:15:42+0000
0.302 km
远距离
3.126574E-4 高风险 0.85
CDM_260829-101805-753406-681221
2026-08-29T
10:18:55+0000
0.851 km
远距离
2.941412E-5 中风险 0.64
CDM_260907-212005-753406-782421
2026-09-07T
21:20:20+0000
0.804 km
远距离
2.670287E-5 中风险 0.64
CDM_260907-175605-753406-681221
2026-09-07T
17:56:11+0000
1.027 km
极远距离
1.554312E-5 中风险 0.59
CDM_260907-193005-753406-681221
2026-09-07T
19:30:20+0000
1.687 km
极远距离
2.993653E-6 低风险 0.45
CDM_260907-061005-753406-681221
2026-09-07T
06:10:02+0000
1.690 km
极远距离
2.979959E-6 低风险 0.44
CDM_260907-194605-753406-782421
2026-09-07T
19:46:10+0000
1.575 km
极远距离
2.812951E-6 低风险 0.44
CDM_260907-030105-753406-681221
2026-09-07T
03:01:43+0000
1.833 km
极远距离
2.368718E-6 低风险 0.42
CDM_260829-084405-753406-681221
2026-08-29T
08:44:46+0000
2.129 km
极远距离
1.635641E-6 低风险 0.39